Weather in Russkaya Berezovka

Russia / Belgorod Oblast     50°40′34″N   35°43′55″E
temp.,
°C
wind,
m/s
gust,
m/s
humid.,
%
clouds,
%
prec.,
mm/h
press.,
hPa
HPBL,
m
26 july, mon
mon2600:00+18e36505 0.0 102290
03:00+17ese47655 0.0 1022116
06:00+17ese37660 0.0 1022126
09:00+24se46422 0.0 1022518
12:00+28ese44312 0.0 10221935
15:00+29ese432818 0.0 10212633
18:00+28e54330 0.0 10212166
21:00+21ese47480 0.0 1021112
27 july, tue
tue2700:00+20ese354733 0.0 102262
03:00+18ese34584 0.0 102265
06:00+18ese35600 0.0 102273
09:00+25ese45405 0.0 1022485
12:00+29ese34300 0.0 10211959
15:00+30se33275 0.0 10192751
18:00+30se22280 0.0 10192561
21:00+23ese4946100 0.0 1019187
28 july, wed
wed2800:00+20se38585 0.0 1019147
03:00+19sse36655 0.0 101993
06:00+19s356575 0.0 1018102
09:00+26s564690 0.0 1017506
12:00+27ssw4642100 0.0 1016856
15:00+31ssw5830100 0.0 10142930
18:00+26s7105472 0.4 1014439
21:00+21s3878100 1.4 1013154
29 july, thu
thu2900:00+19ese359243 2.8 101387
03:00+18w410964 2.8 1012239
06:00+18nnw23934 0.0 101282
09:00+24nne01685 0.0 1013422
12:00+29se004329 0.0 10121414
15:00+31w233665 0.0 10112077
18:00+30w23355 0.0 10102134
21:00+24wsw11530 0.0 101011
30 july, fri
fri3000:00+21w2273100 0.6 101026
03:00+20ssw3483100 1.1 100966
06:00+19nw379337 0.8 1010220
09:00+23nw44740 0.8 1011535
12:00+28nw44520 0.0 10101252
15:00+30nw44430 0.0 10101829
18:00+29nw444019 0.0 10091998
21:00+22nne37680 0.0 1010130